| time (UTC) | temp C | wind direction | speed KPH | gust KPH | rain 1hr cm | rain 24hr cm | rain mn cm | humidity % | barometer mb |
| 20260906150519 | 26 | 288 | 4.8 | 4.8 | 0.00 | 0.00 | 0.00 | 80 | 1018.8 |
| 20260906150014 | 26 | 288 | 3.2 | 6.4 | 0.00 | 0.00 | 0.00 | 79 | 1018.7 |
| 20260906145513 | 26 | 139 | 3.2 | 3.2 | 0.00 | 0.00 | 0.00 | 80 | 1018.7 |
| 20260906145009 | 25 | 217 | 1.6 | 3.2 | 0.00 | 0.00 | 0.00 | 82 | 1018.5 |
| 20260906144502 | 26 | 193 | 3.2 | 3.2 | 0.00 | 0.00 | 0.00 | 80 | 1018.5 |
| 20260906143958 | 25 | 195 | 3.2 | 4.8 | 0.00 | 0.00 | 0.00 | 84 | 1018.2 |
| 20260906143453 | 25 | 229 | 3.2 | 4.8 | 0.00 | 0.00 | 0.00 | 85 | 1018.3 |
| 20260906142949 | 25 | 16 | 3.2 | 4.8 | 0.00 | 0.00 | 0.00 | 85 | 1018.4 |
| 20260906142449 | 25 | 195 | 1.6 | 1.6 | 0.00 | 0.00 | 0.00 | 85 | 1018.3 |
| 20260906141944 | 25 | 131 | 1.6 | 3.2 | 0.00 | 0.00 | 0.00 | 85 | 1018.5 |
| 20260906141443 | 25 | 153 | 3.2 | 3.2 | 0.00 | 0.00 | 0.00 | 85 | 1018.2 |
| 20260906140938 | 25 | 342 | 4.8 | 6.4 | 0.00 | 0.00 | 0.00 | 85 | 1018.3 |
| 20260906140433 | 25 | 356 | 4.8 | 4.8 | 0.00 | 0.00 | 0.00 | 83 | 1018.4 |
| 20260906135931 | 25 | 158 | 3.2 | 3.2 | 0.00 | 0.00 | 0.00 | 84 | 1018.3 |
| 20260906135430 | 25 | 83 | 3.2 | 3.2 | 0.00 | 0.00 | 0.00 | 85 | 1018.2 |
| 20260906134926 | 25 | 203 | 1.6 | 3.2 | 0.00 | 0.00 | 0.00 | 85 | 1018.3 |
| 20260906134421 | 25 | 204 | 3.2 | 4.8 | 0.00 | 0.00 | 0.00 | 85 | 1018.0 |
| 20260906133915 | 25 | 354 | 8.0 | 9.7 | 0.00 | 0.00 | 0.00 | 85 | 1018.2 |
| 20260906133411 | 25 | 195 | 3.2 | 3.2 | 0.00 | 0.00 | 0.00 | 85 | 1018.1 |
| 20260906132907 | 24 | 261 | 3.2 | 3.2 | 0.00 | 0.00 | 0.00 | 87 | 1018.1 |
| 20260906132402 | 24 | 1 | 3.2 | 4.8 | 0.00 | 0.00 | 0.00 | 87 | 1017.9 |
| 20260906131857 | 23 | 202 | 4.8 | 4.8 | 0.00 | 0.00 | 0.00 | 87 | 1018.2 |
| 20260906131353 | 23 | 228 | 3.2 | 4.8 | 0.00 | 0.00 | 0.00 | 88 | 1018.3 |
| 20260906130849 | 23 | 171 | 1.6 | 1.6 | 0.00 | 0.00 | 0.00 | 89 | 1018.1 |
| 20260906130348 | 23 | 212 | 1.6 | 1.6 | 0.00 | 0.00 | 0.00 | 89 | 1018.2 |
| 20260906125847 | 23 | 209 | 3.2 | 3.2 | 0.00 | 0.00 | 0.00 | 89 | 1018.2 |
| 20260906125344 | 23 | 240 | 4.8 | 4.8 | 0.00 | 0.00 | 0.00 | 89 | 1018.2 |
| 20260906124839 | 23 | 33 | 4.8 | 4.8 | 0.00 | 0.00 | 0.00 | 89 | 1018.3 |
| 20260906124335 | 23 | 260 | 4.8 | 4.8 | 0.00 | 0.00 | 0.00 | 89 | 1018.1 |
| 20260906123834 | 23 | 195 | 3.2 | 3.2 | 0.00 | 0.00 | 0.00 | 89 | 1018.0 |
| 20260906123329 | 23 | 112 | 1.6 | 3.2 | 0.00 | 0.00 | 0.00 | 89 | 1017.9 |
| 20260906122829 | 23 | 80 | 3.2 | 3.2 | 0.00 | 0.00 | 0.00 | 89 | 1017.8 |
| 20260906122324 | 23 | 192 | 0.0 | 1.6 | 0.00 | 0.00 | 0.00 | 89 | 1017.9 |
| 20260906121821 | 23 | 130 | 1.6 | 3.2 | 0.00 | 0.00 | 0.00 | 90 | 1017.7 |
| 20260906121317 | 23 | 301 | 3.2 | 4.8 | 0.00 | 0.00 | 0.00 | 90 | 1017.7 |
| 20260906120813 | 23 | 308 | 3.2 | 4.8 | 0.00 | 0.00 | 0.00 | 90 | 1017.9 |
| 20260906120308 | 23 | 210 | 1.6 | 3.2 | 0.00 | 0.00 | 0.00 | 90 | 1017.7 |
| 20260906115804 | 23 | 260 | 3.2 | 4.8 | 0.00 | 0.00 | 0.00 | 90 | 1017.5 |
| 20260906115259 | 22 | 234 | 3.2 | 3.2 | 0.00 | 0.00 | 0.00 | 90 | 1017.3 |
| 20260906114759 | 22 | 196 | 0.0 | 0.0 | 0.00 | 0.00 | 0.00 | 90 | 1017.4 |
| 20260906114254 | 23 | 191 | 1.6 | 1.6 | 0.00 | 0.00 | 0.00 | 90 | 1017.3 |
| 20260906113749 | 23 | 162 | 3.2 | 3.2 | 0.00 | 0.00 | 0.00 | 90 | 1017.2 |
| 20260906113249 | 23 | 200 | 1.6 | 3.2 | 0.00 | 0.00 | 0.00 | 90 | 1017.3 |
| 20260906112748 | 23 | 214 | 1.6 | 1.6 | 0.00 | 0.00 | 0.00 | 90 | 1017.2 |
| 20260906112245 | 23 | 231 | 1.6 | 1.6 | 0.00 | 0.00 | 0.00 | 90 | 1017.3 |
| 20260906111745 | 23 | 197 | 1.6 | 1.6 | 0.00 | 0.00 | 0.00 | 90 | 1017.1 |
| 20260906111244 | 23 | 210 | 1.6 | 1.6 | 0.00 | 0.00 | 0.00 | 90 | 1017.3 |
| 20260906110739 | 23 | 179 | 0.0 | 1.6 | 0.00 | 0.00 | 0.00 | 90 | 1017.4 |
| 20260906110235 | 23 | 163 | 0.0 | 1.6 | 0.00 | 0.00 | 0.00 | 89 | 1017.3 |
| 20260906105733 | 23 | 195 | 0.0 | 1.6 | 0.00 | 0.00 | 0.00 | 89 | 1017.2 |
| 20260906105230 | 23 | 178 | 0.0 | 0.0 | 0.00 | 0.00 | 0.00 | 89 | 1017.1 |
| 20260906104725 | 23 | 193 | 0.0 | 1.6 | 0.00 | 0.00 | 0.00 | 89 | 1017.1 |
| 20260906104224 | 23 | 194 | 1.6 | 1.6 | 0.00 | 0.00 | 0.00 | 89 | 1017.1 |
| 20260906103722 | 23 | 168 | 3.2 | 3.2 | 0.00 | 0.00 | 0.00 | 89 | 1017.0 |
| 20260906103216 | 23 | 165 | 1.6 | 1.6 | 0.00 | 0.00 | 0.00 | 89 | 1016.9 |
| 20260906102712 | 23 | 154 | 0.0 | 1.6 | 0.00 | 0.00 | 0.00 | 88 | 1016.9 |
| 20260906102211 | 23 | 183 | 1.6 | 1.6 | 0.00 | 0.00 | 0.00 | 88 | 1016.7 |
| 20260906101706 | 23 | 191 | 0.0 | 1.6 | 0.00 | 0.00 | 0.00 | 88 | 1016.6 |
| 20260906101201 | 23 | 193 | 1.6 | 1.6 | 0.00 | 0.00 | 0.00 | 88 | 1016.9 |
| 20260906100656 | 23 | 198 | 0.0 | 1.6 | 0.00 | 0.00 | 0.00 | 88 | 1016.8 |
| 20260906100156 | 23 | 168 | 0.0 | 0.0 | 0.00 | 0.00 | 0.00 | 88 | 1016.7 |
| 20260906095651 | 24 | 172 | 1.6 | 1.6 | 0.00 | 0.00 | 0.00 | 89 | 1016.6 |
| 20260906095147 | 24 | 191 | 0.0 | 0.0 | 0.00 | 0.00 | 0.00 | 88 | 1016.6 |
| 20260906094645 | 24 | 248 | 0.0 | 1.6 | 0.00 | 0.00 | 0.00 | 88 | 1016.6 |
| 20260906094141 | 24 | 153 | 1.6 | 3.2 | 0.00 | 0.00 | 0.00 | 88 | 1016.3 |
| 20260906093637 | 24 | 160 | 0.0 | 0.0 | 0.00 | 0.00 | 0.00 | 88 | 1016.6 |
| 20260906093137 | 24 | 201 | 1.6 | 1.6 | 0.00 | 0.00 | 0.00 | 88 | 1016.5 |
| 20260906092632 | 25 | 158 | 3.2 | 3.2 | 0.00 | 0.00 | 0.00 | 88 | 1016.5 |
| 20260906092133 | 25 | 62 | 1.6 | 3.2 | 0.00 | 0.00 | 0.00 | 88 | 1016.5 |
| 20260906091629 | 25 | 194 | 0.0 | 1.6 | 0.00 | 0.00 | 0.00 | 88 | 1016.5 |
| 20260906091125 | 25 | 173 | 0.0 | 1.6 | 0.00 | 0.00 | 0.00 | 88 | 1016.3 |
| 20260906090620 | 25 | 139 | 3.2 | 4.8 | 0.00 | 0.00 | 0.00 | 88 | 1016.4 |
| 20260906090120 | 25 | 169 | 0.0 | 1.6 | 0.00 | 0.00 | 0.00 | 88 | 1016.1 |
| 20260906085620 | 25 | 178 | 1.6 | 1.6 | 0.00 | 0.00 | 0.00 | 88 | 1016.3 |
| 20260906085114 | 25 | 195 | 0.0 | 0.0 | 0.00 | 0.00 | 0.00 | 88 | 1016.4 |
| 20260906084609 | 25 | 159 | 1.6 | 1.6 | 0.00 | 0.00 | 0.00 | 88 | 1016.3 |
| 20260906084107 | 25 | 189 | 0.0 | 0.0 | 0.00 | 0.00 | 0.00 | 88 | 1016.3 |
| 20260906083603 | 25 | 154 | 0.0 | 0.0 | 0.00 | 0.00 | 0.00 | 88 | 1016.1 |
| 20260906083103 | 25 | 321 | 3.2 | 3.2 | 0.00 | 0.00 | 0.00 | 88 | 1016.2 |
| 20260906082558 | 25 | 358 | 3.2 | 3.2 | 0.00 | 0.00 | 0.00 | 88 | 1016.0 |
| 20260906082054 | 25 | 204 | 1.6 | 3.2 | 0.00 | 0.00 | 0.00 | 88 | 1016.1 |
| 20260906081550 | 25 | 169 | 0.0 | 1.6 | 0.00 | 0.00 | 0.00 | 88 | 1016.0 |
| 20260906081045 | 25 | 184 | 1.6 | 1.6 | 0.00 | 0.00 | 0.00 | 88 | 1015.9 |
| 20260906080542 | 26 | 194 | 0.0 | 0.0 | 0.00 | 0.00 | 0.00 | 88 | 1016.0 |
| 20260906080037 | 26 | 188 | 1.6 | 3.2 | 0.00 | 0.00 | 0.00 | 88 | 1015.9 |
| 20260906075537 | 26 | 145 | 1.6 | 3.2 | 0.00 | 0.00 | 0.00 | 88 | 1016.1 |
| 20260906075032 | 26 | 185 | 0.0 | 0.0 | 0.00 | 0.00 | 0.00 | 88 | 1015.9 |
| 20260906074527 | 26 | 189 | 1.6 | 1.6 | 0.00 | 0.00 | 0.00 | 88 | 1015.9 |
| 20260906074025 | 26 | 189 | 0.0 | 0.0 | 0.00 | 0.00 | 0.00 | 88 | 1016.2 |
| 20260906073520 | 26 | 198 | 0.0 | 1.6 | 0.00 | 0.00 | 0.00 | 88 | 1016.2 |
| 20260906073017 | 26 | 108 | 3.2 | 3.2 | 0.00 | 0.00 | 0.00 | 88 | 1016.2 |
| 20260906072511 | 26 | 220 | 1.6 | 3.2 | 0.00 | 0.00 | 0.00 | 88 | 1016.4 |
| 20260906072008 | 26 | 151 | 3.2 | 3.2 | 0.00 | 0.00 | 0.00 | 88 | 1016.1 |
| 20260906071503 | 26 | 200 | 1.6 | 1.6 | 0.00 | 0.00 | 0.00 | 88 | 1016.3 |
| 20260906070958 | 26 | 190 | 1.6 | 3.2 | 0.00 | 0.00 | 0.00 | 88 | 1016.2 |
| 20260906070454 | 26 | 124 | 1.6 | 3.2 | 0.00 | 0.00 | 0.00 | 87 | 1016.2 |
| 20260906065950 | 26 | 182 | 1.6 | 3.2 | 0.00 | 0.00 | 0.00 | 87 | 1016.2 |
| 20260906065449 | 26 | 211 | 3.2 | 3.2 | 0.00 | 0.00 | 0.00 | 87 | 1016.1 |
| 20260906064945 | 27 | 197 | 1.6 | 1.6 | 0.00 | 0.00 | 0.00 | 86 | 1016.0 |
| 20260906064442 | 27 | 170 | 3.2 | 3.2 | 0.00 | 0.00 | 0.00 | 86 | 1016.1 |
| 20260906063942 | 27 | 197 | 1.6 | 1.6 | 0.00 | 0.00 | 0.00 | 85 | 1016.1 |
| 20260906063438 | 27 | 180 | 1.6 | 3.2 | 0.00 | 0.00 | 0.00 | 85 | 1016.1 |
| 20260906062937 | 27 | 199 | 0.0 | 0.0 | 0.00 | 0.00 | 0.00 | 84 | 1016.0 |
| 20260906062433 | 27 | 200 | 0.0 | 0.0 | 0.00 | 0.00 | 0.00 | 84 | 1016.2 |
| 20260906061928 | 27 | 188 | 1.6 | 1.6 | 0.00 | 0.00 | 0.00 | 83 | 1015.9 |
| 20260906061424 | 27 | 196 | 0.0 | 0.0 | 0.00 | 0.00 | 0.00 | 83 | 1016.0 |
| 20260906060924 | 27 | 177 | 0.0 | 0.0 | 0.00 | 0.00 | 0.00 | 82 | 1016.2 |
| 20260906060421 | 28 | 203 | 1.6 | 1.6 | 0.00 | 0.00 | 0.00 | 81 | 1016.2 |
| 20260906055917 | 28 | 184 | 0.0 | 1.6 | 0.00 | 0.00 | 0.00 | 81 | 1016.1 |
| 20260906055413 | 28 | 178 | 0.0 | 1.6 | 0.00 | 0.00 | 0.00 | 80 | 1016.2 |
| 20260906054908 | 28 | 145 | 3.2 | 3.2 | 0.00 | 0.00 | 0.00 | 80 | 1016.1 |
| 20260906054402 | 28 | 190 | 0.0 | 0.0 | 0.00 | 0.00 | 0.00 | 79 | 1016.1 |
| 20260906053859 | 28 | 195 | 0.0 | 0.0 | 0.00 | 0.00 | 0.00 | 79 | 1016.0 |
| 20260906053354 | 28 | 179 | 0.0 | 0.0 | 0.00 | 0.00 | 0.00 | 79 | 1016.0 |
| 20260906052850 | 28 | 193 | 0.0 | 0.0 | 0.00 | 0.00 | 0.00 | 79 | 1016.1 |
| 20260906052346 | 28 | 194 | 0.0 | 0.0 | 0.00 | 0.00 | 0.00 | 78 | 1015.9 |
| 20260906051843 | 28 | 199 | 0.0 | 0.0 | 0.00 | 0.00 | 0.00 | 78 | 1015.9 |
| 20260906051342 | 28 | 201 | 0.0 | 0.0 | 0.00 | 0.00 | 0.00 | 77 | 1015.9 |
| 20260906050838 | 29 | 195 | 1.6 | 1.6 | 0.00 | 0.00 | 0.00 | 77 | 1016.0 |
| 20260906050333 | 29 | 237 | 1.6 | 1.6 | 0.00 | 0.00 | 0.00 | 77 | 1016.1 |
| 20260906045832 | 29 | 201 | 0.0 | 0.0 | 0.00 | 0.00 | 0.00 | 76 | 1016.0 |
| 20260906045326 | 28 | 198 | 0.0 | 1.6 | 0.00 | 0.00 | 0.00 | 77 | 1016.1 |
| 20260906044823 | 28 | 166 | 0.0 | 0.0 | 0.00 | 0.00 | 0.00 | 77 | 1015.8 |
| 20260906044323 | 28 | 202 | 0.0 | 0.0 | 0.00 | 0.00 | 0.00 | 77 | 1015.7 |
| 20260906043819 | 28 | 199 | 0.0 | 0.0 | 0.00 | 0.00 | 0.00 | 78 | 1016.0 |
| 20260906043315 | 28 | 195 | 0.0 | 0.0 | 0.00 | 0.00 | 0.00 | 77 | 1015.7 |
| 20260906042814 | 28 | 194 | 0.0 | 0.0 | 0.00 | 0.00 | 0.00 | 77 | 1015.7 |
| 20260906042313 | 28 | 198 | 0.0 | 0.0 | 0.00 | 0.00 | 0.00 | 77 | 1015.7 |
| 20260906041809 | 28 | 195 | 0.0 | 0.0 | 0.00 | 0.00 | 0.00 | 76 | 1015.6 |
| 20260906041304 | 28 | 192 | 0.0 | 0.0 | 0.00 | 0.00 | 0.00 | 76 | 1015.5 |
| 20260906040759 | 28 | 195 | 0.0 | 0.0 | 0.00 | 0.00 | 0.00 | 76 | 1015.6 |
| 20260906040254 | 28 | 194 | 0.0 | 0.0 | 0.00 | 0.00 | 0.00 | 75 | 1015.4 |
| 20260906035750 | 28 | 192 | 0.0 | 0.0 | 0.00 | 0.00 | 0.00 | 75 | 1015.4 |
| 20260906035246 | 29 | 194 | 0.0 | 0.0 | 0.00 | 0.00 | 0.00 | 74 | 1015.4 |
| 20260906034745 | 29 | 194 | 0.0 | 0.0 | 0.00 | 0.00 | 0.00 | 73 | 1015.5 |
| 20260906034240 | 29 | 197 | 0.0 | 0.0 | 0.00 | 0.00 | 0.00 | 74 | 1015.5 |
| 20260906033736 | 29 | 194 | 0.0 | 0.0 | 0.00 | 0.00 | 0.00 | 73 | 1015.6 |
| 20260906033235 | 30 | 193 | 0.0 | 0.0 | 0.00 | 0.00 | 0.00 | 72 | 1015.6 |
| 20260906032732 | 30 | 198 | 0.0 | 0.0 | 0.00 | 0.00 | 0.00 | 72 | 1015.5 |
| 20260906032232 | 30 | 198 | 0.0 | 0.0 | 0.00 | 0.00 | 0.00 | 72 | 1015.5 |
| 20260906031727 | 30 | 199 | 0.0 | 0.0 | 0.00 | 0.00 | 0.00 | 72 | 1015.5 |
| 20260906031223 | 30 | 197 | 0.0 | 0.0 | 0.00 | 0.00 | 0.00 | 71 | 1015.4 |
| 20260906030723 | 30 | 195 | 0.0 | 0.0 | 0.00 | 0.00 | 0.00 | 70 | 1015.1 |
| 20260906030218 | 30 | 195 | 0.0 | 0.0 | 0.00 | 0.00 | 0.00 | 69 | 1015.1 |
| 20260906025717 | 30 | 199 | 0.0 | 0.0 | 0.00 | 0.00 | 0.00 | 69 | 1015.1 |
| 20260906025212 | 30 | 191 | 1.6 | 1.6 | 0.00 | 0.00 | 0.00 | 70 | 1015.1 |
| 20260906024711 | 30 | 208 | 0.0 | 0.0 | 0.00 | 0.00 | 0.00 | 70 | 1015.0 |
| 20260906024210 | 30 | 199 | 0.0 | 0.0 | 0.00 | 0.00 | 0.00 | 69 | 1015.0 |
| 20260906023707 | 30 | 197 | 0.0 | 0.0 | 0.00 | 0.00 | 0.00 | 68 | 1014.9 |
| 20260906023207 | 30 | 207 | 0.0 | 0.0 | 0.00 | 0.00 | 0.00 | 68 | 1014.9 |
| 20260906022702 | 30 | 185 | 0.0 | 0.0 | 0.00 | 0.00 | 0.00 | 68 | 1015.0 |
| 20260906022157 | 30 | 181 | 1.6 | 1.6 | 0.00 | 0.00 | 0.00 | 68 | 1014.9 |
| 20260906021654 | 30 | 212 | 1.6 | 1.6 | 0.00 | 0.00 | 0.00 | 67 | 1014.9 |
| 20260906021152 | 30 | 200 | 1.6 | 1.6 | 0.00 | 0.00 | 0.00 | 68 | 1014.7 |
| 20260906020647 | 31 | 198 | 0.0 | 0.0 | 0.00 | 0.00 | 0.00 | 68 | 1014.5 |
| 20260906020142 | 31 | 181 | 0.0 | 0.0 | 0.00 | 0.00 | 0.00 | 67 | 1014.5 |
| 20260906015642 | 31 | 219 | 0.0 | 0.0 | 0.00 | 0.00 | 0.00 | 68 | 1014.3 |
| 20260906015140 | 31 | 197 | 0.0 | 0.0 | 0.00 | 0.00 | 0.00 | 67 | 1014.3 |
| 20260906014635 | 31 | 183 | 0.0 | 0.0 | 0.00 | 0.00 | 0.00 | 67 | 1014.5 |
| 20260906014131 | 31 | 151 | 1.6 | 1.6 | 0.00 | 0.00 | 0.00 | 67 | 1014.1 |
| 20260906013626 | 31 | 208 | 0.0 | 0.0 | 0.00 | 0.00 | 0.00 | 66 | 1014.1 |
| 20260906013122 | 31 | 168 | 1.6 | 1.6 | 0.00 | 0.00 | 0.00 | 66 | 1014.0 |
| 20260906012616 | 31 | 259 | 3.2 | 3.2 | 0.00 | 0.00 | 0.00 | 66 | 1014.0 |
| 20260906012116 | 31 | 207 | 3.2 | 3.2 | 0.00 | 0.00 | 0.00 | 65 | 1013.8 |
| 20260906011613 | 31 | 201 | 1.6 | 3.2 | 0.00 | 0.00 | 0.00 | 65 | 1013.9 |
| 20260906011113 | 31 | 186 | 1.6 | 1.6 | 0.00 | 0.00 | 0.00 | 65 | 1013.9 |
| 20260906010608 | 31 | 206 | 1.6 | 1.6 | 0.00 | 0.00 | 0.00 | 65 | 1013.9 |
| 20260906010104 | 32 | 193 | 1.6 | 1.6 | 0.00 | 0.00 | 0.00 | 65 | 1013.9 |
| 20260906005604 | 32 | 194 | 1.6 | 1.6 | 0.00 | 0.00 | 0.00 | 64 | 1013.8 |
| 20260906005103 | 32 | 160 | 0.0 | 0.0 | 0.00 | 0.00 | 0.00 | 64 | 1013.9 |
| 20260906004602 | 32 | 211 | 1.6 | 1.6 | 0.00 | 0.00 | 0.00 | 63 | 1013.8 |
| 20260906004057 | 32 | 194 | 1.6 | 1.6 | 0.00 | 0.00 | 0.00 | 63 | 1013.7 |
| 20260906003552 | 32 | 202 | 0.0 | 0.0 | 0.00 | 0.00 | 0.00 | 62 | 1013.7 |
| 20260906003048 | 32 | 166 | 1.6 | 3.2 | 0.00 | 0.00 | 0.00 | 61 | 1013.6 |
| 20260906002548 | 32 | 247 | 3.2 | 3.2 | 0.00 | 0.00 | 0.00 | 61 | 1013.9 |
| 20260906002043 | 32 | 188 | 1.6 | 1.6 | 0.00 | 0.00 | 0.00 | 61 | 1013.8 |
| 20260906001539 | 33 | 97 | 3.2 | 3.2 | 0.00 | 0.00 | 0.00 | 59 | 1013.7 |
| 20260906001039 | 33 | 233 | 1.6 | 3.2 | 0.00 | 0.00 | 0.00 | 58 | 1013.9 |
| 20260906000535 | 33 | 95 | 3.2 | 4.8 | 0.00 | 0.00 | 0.00 | 58 | 1013.9 |
| 20260906000030 | 33 | 245 | 3.2 | 3.2 | 0.00 | 0.00 | 0.00 | 56 | 1013.9 |
| 20260905235529 | 33 | 226 | 4.8 | 4.8 | 0.00 | 0.00 | 0.00 | 55 | 1013.9 |
| 20260905235025 | 33 | 247 | 6.4 | 6.4 | 0.00 | 0.00 | 0.00 | 54 | 1013.8 |
| 20260905234521 | 34 | 158 | 1.6 | 3.2 | 0.00 | 0.00 | 0.00 | 54 | 1013.9 |
| 20260905234021 | 34 | 115 | 3.2 | 3.2 | 0.00 | 0.00 | 0.00 | 53 | 1013.8 |
| 20260905233515 | 34 | 192 | 0.0 | 1.6 | 0.00 | 0.00 | 0.00 | 52 | 1013.8 |
| 20260905233015 | 35 | 204 | 1.6 | 3.2 | 0.00 | 0.00 | 0.00 | 52 | 1013.7 |
| 20260905232510 | 35 | 259 | 4.8 | 4.8 | 0.00 | 0.00 | 0.00 | 51 | 1013.9 |
| 20260905232006 | 35 | 332 | 6.4 | 6.4 | 0.00 | 0.00 | 0.00 | 51 | 1013.7 |
| 20260905231501 | 35 | 183 | 4.8 | 6.4 | 0.00 | 0.00 | 0.00 | 51 | 1013.9 |
| 20260905230958 | 35 | 91 | 8.0 | 11.3 | 0.00 | 0.00 | 0.00 | 50 | 1014.0 |
| 20260905230456 | 35 | 244 | 3.2 | 3.2 | 0.00 | 0.00 | 0.00 | 50 | 1013.9 |
| 20260905225954 | 35 | 161 | 3.2 | 4.8 | 0.00 | 0.00 | 0.00 | 50 | 1014.1 |
| 20260905225449 | 35 | 192 | 1.6 | 1.6 | 0.00 | 0.00 | 0.00 | 49 | 1013.9 |
| 20260905224945 | 35 | 206 | 3.2 | 4.8 | 0.00 | 0.00 | 0.00 | 48 | 1013.6 |
| 20260905224440 | 35 | 201 | 3.2 | 3.2 | 0.00 | 0.00 | 0.00 | 48 | 1013.7 |
| 20260905223939 | 35 | 181 | 1.6 | 1.6 | 0.00 | 0.00 | 0.00 | 49 | 1013.5 |
| 20260905223437 | 35 | 284 | 4.8 | 4.8 | 0.00 | 0.00 | 0.00 | 48 | 1013.7 |
| 20260905222932 | 35 | 33 | 1.6 | 3.2 | 0.00 | 0.00 | 0.00 | 49 | 1013.5 |
| 20260905222432 | 35 | 104 | 3.2 | 3.2 | 0.00 | 0.00 | 0.00 | 48 | 1013.7 |
| 20260905221927 | 36 | 60 | 1.6 | 3.2 | 0.00 | 0.00 | 0.00 | 48 | 1013.8 |
| 20260905221424 | 36 | 53 | 4.8 | 4.8 | 0.00 | 0.00 | 0.00 | 47 | 1013.8 |
| 20260905220920 | 36 | 289 | 6.4 | 6.4 | 0.00 | 0.00 | 0.00 | 47 | 1013.7 |
| 20260905220416 | 36 | 240 | 6.4 | 11.3 | 0.00 | 0.00 | 0.00 | 46 | 1013.7 |
| 20260905215915 | 37 | 328 | 6.4 | 9.7 | 0.00 | 0.00 | 0.00 | 45 | 1013.7 |
| 20260905215410 | 37 | 114 | 6.4 | 6.4 | 0.00 | 0.00 | 0.00 | 44 | 1013.7 |
| 20260905214907 | 37 | 222 | 4.8 | 6.4 | 0.00 | 0.00 | 0.00 | 44 | 1013.9 |
| 20260905214402 | 37 | 263 | 3.2 | 6.4 | 0.00 | 0.00 | 0.00 | 45 | 1013.7 |
| 20260905213856 | 37 | 74 | 6.4 | 9.7 | 0.00 | 0.00 | 0.00 | 44 | 1013.7 |
| 20260905213353 | 37 | 161 | 4.8 | 6.4 | 0.00 | 0.00 | 0.00 | 45 | 1013.7 |
| 20260905212853 | 37 | 240 | 8.0 | 11.3 | 0.00 | 0.00 | 0.00 | 45 | 1013.7 |
| 20260905212348 | 37 | 8 | 8.0 | 12.9 | 0.00 | 0.00 | 0.00 | 44 | 1013.5 |
| 20260905211847 | 37 | 315 | 12.9 | 14.5 | 0.00 | 0.00 | 0.00 | 45 | 1013.7 |
| 20260905211343 | 37 | 64 | 6.4 | 6.4 | 0.00 | 0.00 | 0.00 | 45 | 1013.6 |
| 20260905210840 | 37 | 15 | 6.4 | 9.7 | 0.00 | 0.00 | 0.00 | 44 | 1013.7 |
| 20260905210340 | 37 | 272 | 3.2 | 4.8 | 0.00 | 0.00 | 0.00 | 45 | 1013.9 |
| 20260905205838 | 37 | 257 | 6.4 | 9.7 | 0.00 | 0.00 | 0.00 | 43 | 1014.0 |
| 20260905205333 | 37 | 269 | 9.7 | 11.3 | 0.00 | 0.00 | 0.00 | 45 | 1014.0 |
| 20260905204832 | 37 | 210 | 3.2 | 4.8 | 0.00 | 0.00 | 0.00 | 46 | 1014.2 |
| 20260905204329 | 37 | 260 | 4.8 | 4.8 | 0.00 | 0.00 | 0.00 | 48 | 1014.1 |
| 20260905203827 | 37 | 91 | 8.0 | 9.7 | 0.00 | 0.00 | 0.00 | 47 | 1014.3 |
| 20260905203323 | 36 | 165 | 3.2 | 3.2 | 0.00 | 0.00 | 0.00 | 48 | 1014.2 |
| 20260905202819 | 36 | 80 | 3.2 | 3.2 | 0.00 | 0.00 | 0.00 | 48 | 1014.1 |
| 20260905202313 | 37 | 340 | 6.4 | 6.4 | 0.00 | 0.00 | 0.00 | 47 | 1014.0 |
| 20260905201809 | 37 | 55 | 4.8 | 6.4 | 0.00 | 0.00 | 0.00 | 47 | 1014.3 |
| 20260905201304 | 36 | 18 | 8.0 | 12.9 | 0.00 | 0.00 | 0.00 | 48 | 1014.2 |
| 20260905200759 | 36 | 248 | 4.8 | 4.8 | 0.00 | 0.00 | 0.00 | 49 | 1014.2 |
| 20260905200255 | 35 | 213 | 3.2 | 4.8 | 0.00 | 0.00 | 0.00 | 54 | 1014.4 |
| 20260905195752 | 34 | 135 | 1.6 | 3.2 | 0.00 | 0.00 | 0.00 | 56 | 1014.3 |
| 20260905195248 | 35 | 87 | 6.4 | 6.4 | 0.00 | 0.00 | 0.00 | 57 | 1014.4 |
| 20260905194743 | 37 | 340 | 8.0 | 9.7 | 0.00 | 0.00 | 0.00 | 48 | 1014.3 |
| 20260905194243 | 38 | 312 | 11.3 | 14.5 | 0.00 | 0.00 | 0.00 | 45 | 1014.2 |
| 20260905193742 | 39 | 311 | 3.2 | 4.8 | 0.00 | 0.00 | 0.00 | 45 | 1014.4 |
| 20260905193237 | 40 | 45 | 8.0 | 9.7 | 0.00 | 0.00 | 0.00 | 41 | 1014.4 |
| 20260905192733 | 40 | 210 | 3.2 | 3.2 | 0.00 | 0.00 | 0.00 | 40 | 1014.4 |
| 20260905192229 | 39 | 288 | 6.4 | 11.3 | 0.00 | 0.00 | 0.00 | 40 | 1014.6 |
| 20260905191728 | 38 | 342 | 9.7 | 12.9 | 0.00 | 0.00 | 0.00 | 40 | 1014.6 |
| 20260905191226 | 39 | 3 | 8.0 | 11.3 | 0.00 | 0.00 | 0.00 | 40 | 1014.6 |
| 20260905190726 | 39 | 330 | 6.4 | 9.7 | 0.00 | 0.00 | 0.00 | 39 | 1014.6 |
| 20260905190224 | 38 | 41 | 8.0 | 9.7 | 0.00 | 0.00 | 0.00 | 40 | 1014.7 |
| 20260905185724 | 38 | 308 | 6.4 | 6.4 | 0.00 | 0.00 | 0.00 | 43 | 1014.7 |
| 20260905185219 | 38 | 95 | 11.3 | 14.5 | 0.00 | 0.00 | 0.00 | 40 | 1014.9 |
| 20260905184713 | 38 | 65 | 6.4 | 11.3 | 0.00 | 0.00 | 0.00 | 42 | 1015.0 |
| 20260905184212 | 38 | 195 | 1.6 | 1.6 | 0.00 | 0.00 | 0.00 | 41 | 1014.8 |
| 20260905183712 | 38 | 230 | 3.2 | 4.8 | 0.00 | 0.00 | 0.00 | 41 | 1014.9 |
| 20260905183207 | 38 | 232 | 3.2 | 3.2 | 0.00 | 0.00 | 0.00 | 42 | 1015.1 |
| 20260905182707 | 38 | 189 | 3.2 | 3.2 | 0.00 | 0.00 | 0.00 | 41 | 1015.0 |
| 20260905182206 | 38 | 226 | 4.8 | 6.4 | 0.00 | 0.00 | 0.00 | 42 | 1015.0 |
| 20260905181702 | 38 | 316 | 9.7 | 11.3 | 0.00 | 0.00 | 0.00 | 41 | 1015.1 |
| 20260905181201 | 38 | 228 | 3.2 | 4.8 | 0.00 | 0.00 | 0.00 | 43 | 1015.2 |
| 20260905180655 | 38 | 182 | 1.6 | 3.2 | 0.00 | 0.00 | 0.00 | 43 | 1015.2 |
| 20260905180151 | 38 | 310 | 6.4 | 9.7 | 0.00 | 0.00 | 0.00 | 44 | 1015.3 |
| 20260905175650 | 37 | 195 | 6.4 | 9.7 | 0.00 | 0.00 | 0.00 | 47 | 1015.6 |
| 20260905175145 | 38 | 31 | 4.8 | 6.4 | 0.00 | 0.00 | 0.00 | 46 | 1015.5 |
| 20260905174641 | 37 | 190 | 3.2 | 3.2 | 0.00 | 0.00 | 0.00 | 45 | 1015.5 |
| 20260905174136 | 37 | 243 | 3.2 | 4.8 | 0.00 | 0.00 | 0.00 | 46 | 1015.5 |
| 20260905173632 | 37 | 15 | 4.8 | 6.4 | 0.00 | 0.00 | 0.00 | 49 | 1015.5 |
| 20260905173128 | 36 | 198 | 0.0 | 0.0 | 0.00 | 0.00 | 0.00 | 48 | 1015.6 |
| 20260905172626 | 37 | 358 | 6.4 | 9.7 | 0.00 | 0.00 | 0.00 | 49 | 1015.5 |
| 20260905172121 | 36 | 135 | 3.2 | 3.2 | 0.00 | 0.00 | 0.00 | 50 | 1015.6 |
| 20260905171618 | 36 | 49 | 1.6 | 4.8 | 0.00 | 0.00 | 0.00 | 49 | 1015.7 |
| 20260905171114 | 36 | 204 | 1.6 | 3.2 | 0.00 | 0.00 | 0.00 | 50 | 1015.8 |
| 20260905170610 | 36 | 206 | 3.2 | 3.2 | 0.00 | 0.00 | 0.00 | 50 | 1015.9 |
| 20260905170106 | 36 | 168 | 3.2 | 3.2 | 0.00 | 0.00 | 0.00 | 52 | 1016.1 |
| 20260905165605 | 36 | 90 | 6.4 | 9.7 | 0.00 | 0.00 | 0.00 | 50 | 1016.1 |
| 20260905165101 | 36 | 192 | 0.0 | 1.6 | 0.00 | 0.00 | 0.00 | 54 | 1016.2 |
| 20260905164555 | 36 | 293 | 6.4 | 6.4 | 0.00 | 0.00 | 0.00 | 52 | 1016.2 |
| 20260905164049 | 36 | 275 | 3.2 | 4.8 | 0.00 | 0.00 | 0.00 | 54 | 1016.2 |
| 20260905163546 | 36 | 236 | 0.0 | 0.0 | 0.00 | 0.00 | 0.00 | 50 | 1016.3 |
| 20260905163042 | 35 | 193 | 3.2 | 3.2 | 0.00 | 0.00 | 0.00 | 53 | 1016.4 |
| 20260905162538 | 36 | 10 | 6.4 | 6.4 | 0.00 | 0.00 | 0.00 | 51 | 1016.3 |
| 20260905162037 | 35 | 63 | 6.4 | 6.4 | 0.00 | 0.00 | 0.00 | 51 | 1016.5 |
| 20260905161532 | 36 | 95 | 3.2 | 3.2 | 0.00 | 0.00 | 0.00 | 51 | 1016.3 |
| 20260905161030 | 36 | 194 | 0.0 | 0.0 | 0.00 | 0.00 | 0.00 | 51 | 1016.4 |
| 20260905160528 | 35 | 247 | 3.2 | 3.2 | 0.00 | 0.00 | 0.00 | 52 | 1016.2 |
| 20260905160028 | 35 | 257 | 6.4 | 6.4 | 0.00 | 0.00 | 0.00 | 52 | 1016.5 |
| 20260905155528 | 35 | 134 | 3.2 | 3.2 | 0.00 | 0.00 | 0.00 | 54 | 1016.5 |
| 20260905155026 | 34 | 251 | 1.6 | 1.6 | 0.00 | 0.00 | 0.00 | 55 | 1016.2 |
| 20260905154522 | 34 | 81 | 3.2 | 4.8 | 0.00 | 0.00 | 0.00 | 54 | 1016.3 |
| 20260905154018 | 34 | 331 | 6.4 | 6.4 | 0.00 | 0.00 | 0.00 | 52 | 1016.2 |
| 20260905153514 | 34 | 197 | 0.0 | 1.6 | 0.00 | 0.00 | 0.00 | 54 | 1016.3 |
| 20260905153013 | 35 | 222 | 3.2 | 3.2 | 0.00 | 0.00 | 0.00 | 56 | 1016.4 |
| 20260905152513 | 34 | 196 | 3.2 | 4.8 | 0.00 | 0.00 | 0.00 | 54 | 1016.3 |
| 20260905152008 | 33 | 265 | 1.6 | 3.2 | 0.00 | 0.00 | 0.00 | 57 | 1016.5 |
| 20260905151504 | 35 | 198 | 1.6 | 1.6 | 0.00 | 0.00 | 0.00 | 55 | 1016.3 |
| 20260905150959 | 34 | 289 | 3.2 | 4.8 | 0.00 | 0.00 | 0.00 | 56 | 1016.4 |